sat.trackr.live / text

‹ back to catalog

RCM-1

NORAD 44322 · 2019-033A

PAYLOAD ACTIVE UNKNOWN

§ Identity

Operator
Country
CA
Launch date
2019-06-12
Launch site
AFWTR
Launch vehicle
Mass (kg)
RCS (m²)

External: N2YO · Heavens-Above · Gunter

§ Orbital elements

Epoch: 2026-09-20T05:06:56.605824Z

Period
96.48 min
Inclination
97.7604°
Eccentricity
0.0001520
Mean motion
14.92588417 rev/d
Perigee alt
588.8 km
Apogee alt
590.9 km
Semi-major
6,968.0 km
B*
2.9592e-5
RAAN
269.3163°
Arg perigee
90.8747°
Mean anomaly
0.8062°
Rev number
39,625

§ Raw data

RCM-11 44322U 19033A   26263.21315516  .00000249  00000+0  29592-4 0  99992 44322  97.7604 269.3163 0001520  90.8747   0.8062 14.92588417396253

JSON: /api/v1/satellites/44322 · /tle

For live sub-satellite position, see the globe view (requires WebGL).

§ Visibility from observer

Set your observer location to see the next 7 days of passes ≥ 10°. The values pass through the URL so the page stays shareable.

No JS? Fill the form by hand. The geolocation button needs JavaScript.